Time,TemperatureF,DewpointF,PressureIn,WindDirection,WindDirectionDegrees,WindSpeedMPH,WindSpeedGustMPH,Humidity,HourlyPrecipIn,Conditions,Clouds,dailyrainin,SolarRadiationWatts/m^2,SoftwareType,DateUTC
2013-08-19 00:02:00,67.5,64.5,30.08,ESE,117,0.0,0.0,90,0.00,CLR,,0.00,0.0,WeatherDisplay:10.37,2013-08-19 05:02:00,
2013-08-19 00:07:00,67.6,64.6,30.08,ESE,117,0.0,0.0,90,0.00,CLR,,0.00,0.0,WeatherDisplay:10.37,2013-08-19 05:07:00,
2013-08-19 00:12:00,67.6,64.6,30.08,ESE,117,0.0,0.0,90,0.00,CLR,,0.00,0.0,WeatherDisplay:10.37,2013-08-19 05:12:00,
2013-08-19 00:17:00,67.4,64.0,30.08,ESE,117,0.0,0.0,89,0.00,CLR,,0.00,0.0,WeatherDisplay:10.37,2013-08-19 05:17:00,
2013-08-19 00:22:00,67.2,64.2,30.08,ESE,117,0.0,0.0,90,0.00,CLR,,0.00,0.0,WeatherDisplay:10.37,2013-08-19 05:22:00,
2013-08-19 00:27:00,67.0,64.0,30.08,ESE,117,0.0,0.0,90,0.00,CLR,,0.00,0.0,WeatherDisplay:10.37,2013-08-19 05:27:00,
2013-08-19 00:32:00,66.7,63.7,30.08,ESE,117,0.0,0.0,90,0.00,CLR,,0.00,0.0,WeatherDisplay:10.37,2013-08-19 05:32:00,
2013-08-19 00:37:00,66.6,63.9,30.08,ESE,117,0.0,0.0,91,0.00,CLR,,0.00,0.0,WeatherDisplay:10.37,2013-08-19 05:37:00,
2013-08-19 00:42:00,66.6,63.9,30.08,ESE,117,0.0,0.0,91,0.00,CLR,,0.00,0.0,WeatherDisplay:10.37,2013-08-19 05:42:00,
2013-08-19 00:47:00,66.5,63.8,30.08,ESE,117,0.0,0.0,91,0.00,CLR,,0.00,0.0,WeatherDisplay:10.37,2013-08-19 05:47:00,
2013-08-19 00:52:00,66.1,63.4,30.08,ESE,117,0.0,0.0,91,0.00,CLR,,0.00,0.0,WeatherDisplay:10.37,2013-08-19 05:52:00,
2013-08-19 00:57:00,66.1,63.4,30.08,ESE,117,0.0,0.0,91,0.00,CLR,,0.00,0.0,WeatherDisplay:10.37,2013-08-19 05:57:00,
2013-08-19 01:02:00,66.0,63.6,30.08,ESE,117,0.0,0.0,92,0.00,CLR,,0.00,0.0,WeatherDisplay:10.37,2013-08-19 06:02:00,
2013-08-19 01:07:00,66.0,63.6,30.08,ESE,117,0.0,0.0,92,0.00,CLR,,0.00,0.0,WeatherDisplay:10.37,2013-08-19 06:07:00,
2013-08-19 01:12:00,65.8,63.4,30.08,ESE,117,0.0,0.0,92,0.00,CLR,,0.00,0.0,WeatherDisplay:10.37,2013-08-19 06:12:00,
2013-08-19 01:17:00,65.8,63.4,30.08,ESE,117,0.0,0.0,92,0.00,CLR,,0.00,0.0,WeatherDisplay:10.37,2013-08-19 06:17:00,
2013-08-19 01:22:00,65.6,63.2,30.08,ESE,117,0.0,0.0,92,0.00,CLR,,0.00,0.0,WeatherDisplay:10.37,2013-08-19 06:22:00,
2013-08-19 01:27:00,65.5,63.1,30.08,ESE,117,0.0,0.0,92,0.00,CLR,,0.00,0.0,WeatherDisplay:10.37,2013-08-19 06:27:00,
2013-08-19 01:32:00,65.4,63.0,30.08,ESE,117,0.0,0.0,92,0.00,CLR,,0.00,0.0,WeatherDisplay:10.37,2013-08-19 06:32:00,
2013-08-19 01:37:00,65.3,62.9,30.08,ESE,117,0.0,0.0,92,0.00,CLR,,0.00,0.0,WeatherDisplay:10.37,2013-08-19 06:37:00,
2013-08-19 01:42:00,65.2,63.1,30.08,ESE,117,0.0,0.0,93,0.00,CLR,,0.00,0.0,WeatherDisplay:10.37,2013-08-19 06:42:00,
2013-08-19 01:47:00,65.3,63.2,30.08,ESE,117,0.0,0.0,93,0.00,CLR,,0.00,0.0,WeatherDisplay:10.37,2013-08-19 06:47:00,
2013-08-19 01:52:00,65.3,63.2,30.08,ESE,117,0.0,0.0,93,0.00,CLR,,0.00,0.0,WeatherDisplay:10.37,2013-08-19 06:52:00,
2013-08-19 01:57:00,65.3,63.2,30.08,ESE,117,0.0,0.0,93,0.00,CLR,,0.00,0.0,WeatherDisplay:10.37,2013-08-19 06:57:00,
2013-08-19 02:02:00,65.0,62.9,30.08,ESE,117,0.0,0.0,93,0.00,CLR,,0.00,0.0,WeatherDisplay:10.37,2013-08-19 07:02:00,
2013-08-19 02:07:00,65.0,62.9,30.08,ESE,117,0.0,0.0,93,0.00,CLR,,0.00,0.0,WeatherDisplay:10.37,2013-08-19 07:07:00,
2013-08-19 02:12:00,65.0,62.9,30.08,ESE,117,0.0,0.0,93,0.00,CLR,,0.00,0.0,WeatherDisplay:10.37,2013-08-19 07:12:00,
2013-08-19 02:17:00,65.0,62.9,30.08,ESE,117,0.0,0.0,93,0.00,CLR,,0.00,0.0,WeatherDisplay:10.37,2013-08-19 07:17:00,
2013-08-19 02:22:00,64.9,62.8,30.08,ESE,117,0.0,0.0,93,0.00,CLR,,0.00,0.0,WeatherDisplay:10.37,2013-08-19 07:22:00,
2013-08-19 02:27:00,64.9,62.8,30.08,ESE,117,0.0,0.0,93,0.00,CLR,,0.00,0.0,WeatherDisplay:10.37,2013-08-19 07:27:00,
2013-08-19 02:32:00,64.7,62.6,30.08,ESE,117,0.0,0.0,93,0.00,CLR,,0.00,0.0,WeatherDisplay:10.37,2013-08-19 07:32:00,
2013-08-19 02:37:00,64.5,62.4,30.08,ESE,117,0.0,0.0,93,0.00,CLR,,0.00,0.0,WeatherDisplay:10.37,2013-08-19 07:37:00,
2013-08-19 02:42:00,64.3,62.2,30.08,ESE,117,0.0,0.0,93,0.00,CLR,,0.00,0.0,WeatherDisplay:10.37,2013-08-19 07:42:00,
2013-08-19 02:47:00,64.1,62.0,30.08,ESE,117,0.0,0.0,93,0.00,CLR,,0.00,0.0,WeatherDisplay:10.37,2013-08-19 07:47:00,
2013-08-19 02:52:00,64.1,62.0,30.08,ESE,117,0.0,0.0,93,0.00,CLR,,0.00,0.0,WeatherDisplay:10.37,2013-08-19 07:52:00,
2013-08-19 02:57:00,64.1,62.0,30.08,ESE,117,0.0,0.0,93,0.00,CLR,,0.00,0.0,WeatherDisplay:10.37,2013-08-19 07:57:00,
2013-08-19 03:02:00,64.0,61.9,30.08,ESE,117,0.0,0.0,93,0.00,CLR,,0.00,0.0,WeatherDisplay:10.37,2013-08-19 08:02:00,
2013-08-19 03:07:00,64.0,61.9,30.08,ESE,117,0.0,0.0,93,0.00,CLR,,0.00,0.0,WeatherDisplay:10.37,2013-08-19 08:07:00,
2013-08-19 03:12:00,64.0,62.2,30.08,ESE,117,0.0,0.0,94,0.00,CLR,,0.00,0.0,WeatherDisplay:10.37,2013-08-19 08:12:00,
2013-08-19 03:17:00,64.1,62.3,30.08,ESE,117,0.0,0.0,94,0.00,CLR,,0.00,0.0,WeatherDisplay:10.37,2013-08-19 08:17:00,
2013-08-19 03:22:00,64.2,62.4,30.08,ESE,117,0.0,0.0,94,0.00,CLR,,0.00,0.0,WeatherDisplay:10.37,2013-08-19 08:22:00,
2013-08-19 03:27:00,64.1,62.3,30.08,ESE,117,0.0,0.0,94,0.00,CLR,,0.00,0.0,WeatherDisplay:10.37,2013-08-19 08:27:00,
2013-08-19 03:32:00,64.2,62.4,30.08,ESE,117,0.0,0.0,94,0.00,CLR,,0.00,0.0,WeatherDisplay:10.37,2013-08-19 08:32:00,
2013-08-19 03:37:00,64.0,62.2,30.08,ESE,117,0.0,0.0,94,0.00,CLR,,0.00,0.0,WeatherDisplay:10.37,2013-08-19 08:37:00,
2013-08-19 03:42:00,63.8,61.7,30.08,ESE,117,0.0,0.0,93,0.00,CLR,,0.00,0.0,WeatherDisplay:10.37,2013-08-19 08:42:00,
2013-08-19 03:47:00,63.8,62.0,30.08,ESE,117,0.0,0.0,94,0.00,CLR,,0.00,0.0,WeatherDisplay:10.37,2013-08-19 08:47:00,
2013-08-19 03:52:00,63.7,61.9,30.08,ESE,117,0.0,0.0,94,0.00,CLR,,0.00,0.0,WeatherDisplay:10.37,2013-08-19 08:52:00,
2013-08-19 03:57:00,63.7,61.9,30.08,ESE,117,0.0,0.0,94,0.00,CLR,,0.00,0.0,WeatherDisplay:10.37,2013-08-19 08:57:00,
2013-08-19 04:02:00,63.6,61.8,30.08,ESE,117,0.0,0.0,94,0.00,CLR,,0.00,0.0,WeatherDisplay:10.37,2013-08-19 09:02:00,
2013-08-19 04:07:00,63.5,61.7,30.08,ESE,117,0.0,0.0,94,0.00,CLR,,0.00,0.0,WeatherDisplay:10.37,2013-08-19 09:07:00,
2013-08-19 04:12:00,63.5,61.7,30.08,ESE,117,0.0,0.0,94,0.00,CLR,,0.00,0.0,WeatherDisplay:10.37,2013-08-19 09:12:00,
2013-08-19 04:17:00,63.4,61.6,30.08,ESE,117,0.0,0.0,94,0.00,CLR,,0.00,0.0,WeatherDisplay:10.37,2013-08-19 09:17:00,
2013-08-19 04:22:00,63.3,61.5,30.08,ESE,117,0.0,0.0,94,0.00,CLR,,0.00,0.0,WeatherDisplay:10.37,2013-08-19 09:22:00,
2013-08-19 04:27:00,63.2,61.4,30.08,ESE,117,0.0,0.0,94,0.00,CLR,,0.00,0.0,WeatherDisplay:10.37,2013-08-19 09:27:00,
2013-08-19 04:32:00,63.1,61.3,30.08,ESE,117,0.0,0.0,94,0.00,CLR,,0.00,0.0,WeatherDisplay:10.37,2013-08-19 09:32:00,
2013-08-19 04:37:00,63.0,61.2,30.08,ESE,117,0.0,0.0,94,0.00,CLR,,0.00,0.0,WeatherDisplay:10.37,2013-08-19 09:37:00,
2013-08-19 04:42:00,62.8,61.0,30.08,ESE,117,0.0,0.0,94,0.00,CLR,,0.00,0.0,WeatherDisplay:10.37,2013-08-19 09:42:00,
2013-08-19 04:47:00,62.8,61.0,30.08,ESE,117,0.0,0.0,94,0.00,CLR,,0.00,0.0,WeatherDisplay:10.37,2013-08-19 09:47:00,
2013-08-19 04:52:00,62.9,61.1,30.08,ESE,117,0.0,0.0,94,0.00,CLR,,0.00,0.0,WeatherDisplay:10.37,2013-08-19 09:52:00,
2013-08-19 04:57:00,62.9,61.1,30.08,ESE,117,0.0,0.0,94,0.00,CLR,,0.00,0.0,WeatherDisplay:10.37,2013-08-19 09:57:00,
2013-08-19 05:02:00,62.9,61.1,30.08,ESE,117,0.0,0.0,94,0.00,CLR,,0.00,0.0,WeatherDisplay:10.37,2013-08-19 10:02:00,
2013-08-19 05:07:00,62.8,61.0,30.08,ESE,117,0.0,0.0,94,0.00,CLR,,0.00,0.0,WeatherDisplay:10.37,2013-08-19 10:07:00,
2013-08-19 05:12:00,62.5,60.7,30.08,ESE,117,0.0,0.0,94,0.00,CLR,,0.00,0.0,WeatherDisplay:10.37,2013-08-19 10:12:00,
2013-08-19 05:17:00,62.4,60.7,30.08,ESE,117,0.0,0.0,94,0.00,CLR,,0.00,0.0,WeatherDisplay:10.37,2013-08-19 10:17:00,
2013-08-19 05:22:00,62.4,60.7,30.08,ESE,117,0.0,0.0,94,0.00,CLR,,0.00,0.0,WeatherDisplay:10.37,2013-08-19 10:22:00,
2013-08-19 05:27:00,62.4,60.7,30.09,ESE,117,0.0,0.0,94,0.00,CLR,,0.00,0.0,WeatherDisplay:10.37,2013-08-19 10:27:00,
2013-08-19 05:32:00,62.4,60.7,30.09,ESE,117,0.0,0.0,94,0.00,CLR,,0.00,0.0,WeatherDisplay:10.37,2013-08-19 10:32:00,
2013-08-19 05:37:00,62.4,60.7,30.09,ESE,117,0.0,0.0,94,0.00,CLR,,0.00,0.0,WeatherDisplay:10.37,2013-08-19 10:37:00,
2013-08-19 05:42:00,62.3,60.6,30.09,ESE,117,0.0,0.0,94,0.00,CLR,,0.00,0.0,WeatherDisplay:10.37,2013-08-19 10:42:00,
2013-08-19 05:47:00,62.2,60.5,30.09,ESE,117,0.0,0.0,94,0.00,CLR,,0.00,0.0,WeatherDisplay:10.37,2013-08-19 10:47:00,
2013-08-19 05:52:00,62.1,60.4,30.09,ESE,117,0.0,0.0,94,0.00,CLR,,0.00,0.0,WeatherDisplay:10.37,2013-08-19 10:52:00,
2013-08-19 05:57:00,62.3,60.6,30.08,ESE,117,0.0,0.0,94,0.00,CLR,,0.00,0.0,WeatherDisplay:10.37,2013-08-19 10:57:00,
2013-08-19 06:02:00,62.3,60.6,30.08,ESE,117,0.0,0.0,94,0.00,CLR,,0.00,0.0,WeatherDisplay:10.37,2013-08-19 11:02:00,
2013-08-19 06:07:00,62.3,60.6,30.08,ESE,117,0.0,0.0,94,0.00,CLR,,0.00,0.0,WeatherDisplay:10.37,2013-08-19 11:07:00,
2013-08-19 06:12:00,61.9,60.2,30.09,ESE,117,0.0,0.0,94,0.00,CLR,,0.00,0.0,WeatherDisplay:10.37,2013-08-19 11:12:00,
2013-08-19 06:17:00,61.9,60.2,30.09,ESE,117,0.0,0.0,94,0.00,CLR,,0.00,0.0,WeatherDisplay:10.37,2013-08-19 11:17:00,
2013-08-19 06:22:00,61.8,60.1,30.09,ESE,117,0.0,0.0,94,0.00,CLR,,0.00,0.0,WeatherDisplay:10.37,2013-08-19 11:22:00,
2013-08-19 06:27:00,61.8,60.1,30.09,ESE,117,0.0,0.0,94,0.00,CLR,,0.00,0.0,WeatherDisplay:10.37,2013-08-19 11:27:00,
2013-08-19 06:32:00,61.8,60.1,30.10,ESE,117,0.0,0.0,94,0.00,CLR,,0.00,0.0,WeatherDisplay:10.37,2013-08-19 11:32:00,
2013-08-19 06:37:00,61.7,60.0,30.09,ESE,117,0.0,0.0,94,0.00,CLR,,0.00,0.0,WeatherDisplay:10.37,2013-08-19 11:37:00,
2013-08-19 06:42:00,61.8,60.1,30.09,ESE,117,0.0,0.0,94,0.00,CLR,,0.00,7.0,WeatherDisplay:10.37,2013-08-19 11:42:00,
2013-08-19 06:47:00,61.8,60.1,30.10,ESE,117,0.0,0.0,94,0.00,CLR,,0.00,11.0,WeatherDisplay:10.37,2013-08-19 11:47:00,
2013-08-19 06:52:00,62.1,60.4,30.10,ESE,117,0.0,0.0,94,0.00,CLR,,0.00,14.0,WeatherDisplay:10.37,2013-08-19 11:52:00,
2013-08-19 06:57:00,62.1,60.4,30.10,ESE,117,0.0,0.0,94,0.00,CLR,,0.00,18.0,WeatherDisplay:10.37,2013-08-19 11:57:00,
2013-08-19 07:02:00,62.0,60.3,30.10,ESE,117,0.0,0.0,94,0.00,CLR,,0.00,21.0,WeatherDisplay:10.37,2013-08-19 12:02:00,
2013-08-19 07:07:00,62.0,60.3,30.10,ESE,117,0.0,0.0,94,0.00,CLR,,0.00,26.0,WeatherDisplay:10.37,2013-08-19 12:07:00,
2013-08-19 07:12:00,62.1,60.4,30.10,ESE,117,0.0,0.0,94,0.00,CLR,,0.00,30.0,WeatherDisplay:10.37,2013-08-19 12:12:00,
2013-08-19 07:17:00,62.2,60.5,30.10,ESE,117,0.0,0.0,94,0.00,CLR,,0.00,37.0,WeatherDisplay:10.37,2013-08-19 12:17:00,
2013-08-19 07:22:00,62.4,60.7,30.11,ESE,117,0.0,0.0,94,0.00,CLR,,0.00,40.0,WeatherDisplay:10.37,2013-08-19 12:22:00,
2013-08-19 07:27:00,62.7,60.9,30.11,ESE,117,0.0,0.0,94,0.00,CLR,,0.00,42.0,WeatherDisplay:10.37,2013-08-19 12:27:00,
2013-08-19 07:32:00,63.1,61.6,30.11,ESE,117,0.0,0.0,95,0.00,CLR,,0.00,49.0,WeatherDisplay:10.37,2013-08-19 12:32:00,
2013-08-19 07:37:00,63.4,61.6,30.11,ESE,117,0.0,0.0,94,0.00,CLR,,0.00,70.0,WeatherDisplay:10.37,2013-08-19 12:37:00,
2013-08-19 07:42:00,63.8,62.0,30.11,ESE,117,0.0,0.0,94,0.00,CLR,,0.00,63.0,WeatherDisplay:10.37,2013-08-19 12:42:00,
2013-08-19 07:47:00,64.2,62.7,30.11,ESE,117,0.0,0.0,95,0.00,CLR,,0.00,62.0,WeatherDisplay:10.37,2013-08-19 12:47:00,
2013-08-19 07:52:00,64.6,63.1,30.11,ESE,117,0.0,0.0,95,0.00,CLR,,0.00,88.0,WeatherDisplay:10.37,2013-08-19 12:52:00,
2013-08-19 07:57:00,65.1,63.6,30.11,ESE,117,0.0,0.0,95,0.00,CLR,,0.00,174.0,WeatherDisplay:10.37,2013-08-19 12:57:00,
2013-08-19 08:02:00,65.6,64.1,30.11,ESE,117,0.0,0.0,95,0.00,CLR,,0.00,190.0,WeatherDisplay:10.37,2013-08-19 13:02:00,
2013-08-19 08:07:00,66.1,64.3,30.11,ESE,117,0.0,0.0,94,0.00,CLR,,0.00,204.0,WeatherDisplay:10.37,2013-08-19 13:07:00,
2013-08-19 08:12:00,66.6,64.9,30.11,ESE,117,0.0,0.0,94,0.00,CLR,,0.00,220.0,WeatherDisplay:10.37,2013-08-19 13:12:00,
2013-08-19 08:17:00,67.1,65.0,30.12,ESE,113,0.0,0.0,93,0.00,CLR,,0.00,237.0,WeatherDisplay:10.37,2013-08-19 13:17:00,
2013-08-19 08:22:00,67.8,65.4,30.11,ESE,107,0.0,0.0,92,0.00,CLR,,0.00,253.0,WeatherDisplay:10.37,2013-08-19 13:22:00,
2013-08-19 08:27:00,68.7,66.0,30.12,ESE,105,0.0,0.0,91,0.00,CLR,,0.00,272.0,WeatherDisplay:10.37,2013-08-19 13:27:00,
2013-08-19 08:32:00,69.4,65.7,30.12,ESE,104,0.0,0.0,88,0.00,CLR,,0.00,288.0,WeatherDisplay:10.37,2013-08-19 13:32:00,
2013-08-19 08:37:00,69.7,65.3,30.12,ESE,103,0.0,0.0,86,0.00,CLR,,0.00,306.0,WeatherDisplay:10.37,2013-08-19 13:37:00,
2013-08-19 08:42:00,70.0,65.6,30.12,ESE,103,0.0,0.0,86,0.00,CLR,,0.00,322.0,WeatherDisplay:10.37,2013-08-19 13:42:00,
2013-08-19 08:47:00,70.5,66.1,30.12,ESE,105,0.0,0.0,86,0.00,CLR,,0.00,341.0,WeatherDisplay:10.37,2013-08-19 13:47:00,
2013-08-19 08:52:00,71.0,65.9,30.12,ESE,107,0.0,0.0,84,0.00,CLR,,0.00,360.0,WeatherDisplay:10.37,2013-08-19 13:52:00,
2013-08-19 08:57:00,71.2,66.1,30.12,ESE,108,0.0,0.0,84,0.00,CLR,,0.00,380.0,WeatherDisplay:10.37,2013-08-19 13:57:00,
2013-08-19 09:02:00,71.5,65.8,30.12,ESE,110,0.0,0.0,82,0.00,CLR,,0.00,390.0,WeatherDisplay:10.37,2013-08-19 14:02:00,
2013-08-19 09:07:00,71.8,66.0,30.12,ESE,119,5.0,7.0,82,0.00,CLR,,0.00,408.0,WeatherDisplay:10.37,2013-08-19 14:07:00,
2013-08-19 09:12:00,72.1,66.3,30.13,ESE,119,2.0,4.0,82,0.00,CLR,,0.00,424.0,WeatherDisplay:10.37,2013-08-19 14:12:00,
2013-08-19 09:17:00,72.3,66.2,30.12,ESE,111,3.0,7.0,81,0.00,CLR,,0.00,434.0,WeatherDisplay:10.37,2013-08-19 14:17:00,
2013-08-19 09:22:00,73.0,67.6,30.12,East,92,0.0,4.0,83,0.00,CLR,,0.00,455.0,WeatherDisplay:10.37,2013-08-19 14:22:00,
2013-08-19 09:27:00,73.4,66.5,30.12,East,84,2.0,7.0,79,0.00,CLR,,0.00,478.0,WeatherDisplay:10.37,2013-08-19 14:27:00,
2013-08-19 09:32:00,73.6,66.7,30.12,East,79,0.0,6.0,79,0.00,CLR,,0.00,494.0,WeatherDisplay:10.37,2013-08-19 14:32:00,
2013-08-19 09:37:00,73.9,67.3,30.13,East,81,2.0,6.0,80,0.00,CLR,,0.00,510.0,WeatherDisplay:10.37,2013-08-19 14:37:00,
2013-08-19 09:42:00,74.0,66.7,30.13,East,101,2.0,7.0,78,0.00,CLR,,0.00,531.0,WeatherDisplay:10.37,2013-08-19 14:42:00,
2013-08-19 09:47:00,74.3,66.6,30.12,ESE,108,3.0,8.0,77,0.00,CLR,,0.00,545.0,WeatherDisplay:10.37,2013-08-19 14:47:00,
2013-08-19 09:52:00,74.3,66.7,30.12,ESE,115,2.0,7.0,77,0.00,CLR,,0.00,550.0,WeatherDisplay:10.37,2013-08-19 14:52:00,
2013-08-19 09:57:00,74.9,66.4,30.13,ESE,109,5.0,7.0,75,0.00,CLR,,0.00,575.0,WeatherDisplay:10.37,2013-08-19 14:57:00,
2013-08-19 10:02:00,75.4,67.7,30.12,East,101,3.0,8.0,77,0.00,CLR,,0.00,592.0,WeatherDisplay:10.37,2013-08-19 15:02:00,
2013-08-19 10:07:00,75.5,67.0,30.12,East,100,1.0,4.0,75,0.00,CLR,,0.00,608.0,WeatherDisplay:10.37,2013-08-19 15:07:00,
2013-08-19 10:12:00,75.8,66.9,30.12,ESE,104,2.0,9.0,74,0.00,CLR,,0.00,619.0,WeatherDisplay:10.37,2013-08-19 15:12:00,
2013-08-19 10:17:00,75.4,66.5,30.12,SSE,161,2.0,7.0,74,0.00,CLR,,0.00,635.0,WeatherDisplay:10.37,2013-08-19 15:17:00,
2013-08-19 10:22:00,75.7,67.2,30.12,SSE,148,0.0,4.0,75,0.00,CLR,,0.00,656.0,WeatherDisplay:10.37,2013-08-19 15:22:00,
2013-08-19 10:27:00,76.1,67.6,30.12,East,95,5.0,8.0,75,0.00,CLR,,0.00,663.0,WeatherDisplay:10.37,2013-08-19 15:27:00,
2013-08-19 10:32:00,76.0,67.8,30.12,East,99,1.0,6.0,76,0.00,CLR,,0.00,677.0,WeatherDisplay:10.37,2013-08-19 15:32:00,
2013-08-19 10:37:00,76.3,67.4,30.12,SSE,152,3.0,7.0,74,0.00,CLR,,0.00,687.0,WeatherDisplay:10.37,2013-08-19 15:37:00,
2013-08-19 10:42:00,76.1,66.8,30.12,South,189,5.0,8.0,73,0.00,CLR,,0.00,705.0,WeatherDisplay:10.37,2013-08-19 15:42:00,
2013-08-19 10:47:00,76.5,67.2,30.12,East,90,1.4,1.4,73,0.00,CLR,,0.00,721.0,WeatherDisplay:10.37,2013-08-19 15:47:00,
2013-08-19 10:52:00,76.9,66.8,30.12,ESE,102,1.0,3.5,71,0.00,CLR,,0.00,728.0,WeatherDisplay:10.37,2013-08-19 15:52:00,
2013-08-19 10:57:00,77.6,67.0,30.12,South,175,2.2,3.5,70,0.00,CLR,,0.00,744.0,WeatherDisplay:10.37,2013-08-19 15:57:00,
2013-08-19 11:02:00,77.1,67.0,30.12,WSW,238,1.1,2.6,71,0.00,CLR,,0.00,754.0,WeatherDisplay:10.37,2013-08-19 16:02:00,
2013-08-19 11:07:00,77.5,67.8,30.11,SW,215,2.8,2.8,72,0.00,CLR,,0.00,773.0,WeatherDisplay:10.37,2013-08-19 16:07:00,
2013-08-19 11:12:00,77.9,67.3,30.11,SSW,197,4.1,4.1,70,0.00,CLR,,0.00,775.0,WeatherDisplay:10.37,2013-08-19 16:12:00,
2013-08-19 11:17:00,77.6,67.4,30.11,East,88,4.4,6.6,71,0.00,CLR,,0.00,791.0,WeatherDisplay:10.37,2013-08-19 16:17:00,
2013-08-19 11:22:00,77.8,66.4,30.11,East,101,1.0,8.0,68,0.00,CLR,,0.00,796.0,WeatherDisplay:10.37,2013-08-19 16:22:00,
2013-08-19 11:27:00,78.0,67.0,30.11,ENE,77,1.0,7.0,69,0.00,CLR,,0.00,809.0,WeatherDisplay:10.37,2013-08-19 16:27:00,
2013-08-19 11:32:00,78.5,67.1,30.11,East,83,5.0,8.0,68,0.00,CLR,,0.00,821.0,WeatherDisplay:10.37,2013-08-19 16:32:00,
2013-08-19 11:37:00,78.5,67.0,30.11,East,100,5.0,7.0,68,0.00,CLR,,0.00,828.0,WeatherDisplay:10.37,2013-08-19 16:37:00,
2013-08-19 11:42:00,78.2,67.2,30.10,ESE,113,1.0,7.0,69,0.00,CLR,,0.00,831.0,WeatherDisplay:10.37,2013-08-19 16:42:00,
2013-08-19 11:47:00,78.9,67.0,30.10,SSE,149,5.0,7.0,67,0.00,CLR,,0.00,846.0,WeatherDisplay:10.37,2013-08-19 16:47:00,
2013-08-19 11:52:00,78.8,67.8,30.10,SSW,198,1.0,7.0,69,0.00,CLR,,0.00,849.0,WeatherDisplay:10.37,2013-08-19 16:52:00,
2013-08-19 11:57:00,79.1,67.2,30.10,South,184,1.0,6.0,67,0.00,CLR,,0.00,856.0,WeatherDisplay:10.37,2013-08-19 16:57:00,
2013-08-19 12:02:00,79.4,67.1,30.10,SE,129,3.0,9.0,66,0.00,CLR,,0.00,865.0,WeatherDisplay:10.37,2013-08-19 17:02:00,
2013-08-19 12:07:00,79.3,66.5,30.10,ESE,119,5.0,7.0,65,0.00,CLR,,0.00,865.0,WeatherDisplay:10.37,2013-08-19 17:07:00,
2013-08-19 12:13:00,79.1,66.8,30.09,WNW,295,2.9,5.3,66,0.00,CLR,,0.00,861.0,WeatherDisplay:10.37,2013-08-19 17:13:00,
2013-08-19 12:18:00,79.7,68.2,30.09,ESE,107,4.7,6.9,68,0.00,CLR,,0.00,881.0,WeatherDisplay:10.37,2013-08-19 17:18:00,
2013-08-19 12:23:00,80.2,68.7,30.09,ENE,76,4.1,6.9,68,0.00,CLR,,0.00,884.0,WeatherDisplay:10.37,2013-08-19 17:23:00,
2013-08-19 12:28:00,80.2,68.2,30.09,East,90,3.2,8.1,67,0.00,CLR,,0.00,888.0,WeatherDisplay:10.37,2013-08-19 17:28:00,
2013-08-19 12:33:00,80.0,66.7,30.09,SE,130,1.5,5.8,64,0.00,CLR,,0.00,895.0,WeatherDisplay:10.37,2013-08-19 17:33:00,
2013-08-19 12:38:00,80.1,66.8,30.09,East,99,1.2,2.3,64,0.00,CLR,,0.00,900.0,WeatherDisplay:10.37,2013-08-19 17:38:00,
2013-08-19 12:43:00,80.0,67.2,30.09,West,276,0.8,2.6,65,0.00,CLR,,0.00,900.0,WeatherDisplay:10.37,2013-08-19 17:43:00,
2013-08-19 12:48:00,80.6,67.3,30.08,ESE,117,3.1,3.5,64,0.00,CLR,,0.00,907.0,WeatherDisplay:10.37,2013-08-19 17:48:00,
2013-08-19 12:53:00,80.7,68.3,30.08,North,5,1.9,3.5,66,0.00,CLR,,0.00,911.0,WeatherDisplay:10.37,2013-08-19 17:53:00,
2013-08-19 12:58:00,81.0,68.1,30.08,ESE,119,5.2,6.9,65,0.00,CLR,,0.00,912.0,WeatherDisplay:10.37,2013-08-19 17:58:00,
2013-08-19 13:03:00,80.9,68.0,30.08,NE,53,0.1,2.3,65,0.00,FEW,,0.00,914.0,WeatherDisplay:10.37,2013-08-19 18:03:00,
2013-08-19 13:08:00,81.4,67.1,30.08,East,86,6.4,8.1,62,0.00,FEW,,0.00,914.0,WeatherDisplay:10.37,2013-08-19 18:08:00,
2013-08-19 13:13:00,81.7,67.4,30.08,SW,217,5.7,6.9,62,0.00,FEW,,0.00,918.0,WeatherDisplay:10.37,2013-08-19 18:13:00,
2013-08-19 13:18:00,81.5,67.7,30.08,SSW,196,6.3,8.1,63,0.00,FEW,,0.00,909.0,WeatherDisplay:10.37,2013-08-19 18:18:00,
2013-08-19 13:23:00,81.6,66.8,30.07,WSW,242,4.1,5.8,61,0.00,FEW,,0.00,916.0,WeatherDisplay:10.37,2013-08-19 18:23:00,
2013-08-19 13:28:00,81.4,66.7,30.07,SSE,165,2.9,4.0,61,0.00,FEW,,0.00,918.0,WeatherDisplay:10.37,2013-08-19 18:28:00,
2013-08-19 13:33:00,81.5,66.8,30.07,ESE,110,4.8,9.2,61,0.00,FEW,,0.00,923.0,WeatherDisplay:10.37,2013-08-19 18:33:00,
2013-08-19 13:38:00,82.5,68.2,30.07,South,176,1.1,3.5,62,0.00,FEW,,0.00,916.0,WeatherDisplay:10.37,2013-08-19 18:38:00,
2013-08-19 13:43:00,82.8,67.0,30.07,SSW,198,6.4,9.2,59,0.00,FEW,,0.00,916.0,WeatherDisplay:10.37,2013-08-19 18:43:00,
2013-08-19 13:48:00,82.2,67.4,30.07,SSW,196,2.5,3.5,61,0.00,FEW,,0.00,916.0,WeatherDisplay:10.37,2013-08-19 18:48:00,
2013-08-19 13:53:00,82.1,67.8,30.07,SSE,148,2.2,3.5,62,0.00,FEW,,0.00,914.0,WeatherDisplay:10.37,2013-08-19 18:53:00,
2013-08-19 13:58:00,82.1,65.4,30.07,East,88,1.7,2.3,57,0.00,FEW,,0.00,912.0,WeatherDisplay:10.37,2013-08-19 18:58:00,
2013-08-19 14:03:00,82.7,67.4,30.07,SSW,208,4.5,5.8,60,0.00,CLR,,0.00,902.0,WeatherDisplay:10.37,2013-08-19 19:03:00,
2013-08-19 14:08:00,82.4,66.6,30.07,SW,219,4.6,5.8,59,0.00,CLR,,0.00,898.0,WeatherDisplay:10.37,2013-08-19 19:08:00,
2013-08-19 14:13:00,83.0,67.2,30.07,South,171,4.1,6.9,59,0.00,CLR,,0.00,896.0,WeatherDisplay:10.37,2013-08-19 19:13:00,
2013-08-19 14:18:00,82.6,65.3,30.06,ENE,74,2.7,3.5,56,0.00,CLR,,0.00,888.0,WeatherDisplay:10.37,2013-08-19 19:18:00,
2013-08-19 14:23:00,83.0,66.2,30.06,ESE,113,4.2,5.8,57,0.00,CLR,,0.00,884.0,WeatherDisplay:10.37,2013-08-19 19:23:00,
2013-08-19 14:28:00,83.0,66.7,30.06,SSE,165,5.0,9.2,58,0.00,CLR,,0.00,875.0,WeatherDisplay:10.37,2013-08-19 19:28:00,
2013-08-19 14:33:00,83.1,65.8,30.06,SSW,202,3.7,5.8,56,0.00,CLR,,0.00,874.0,WeatherDisplay:10.37,2013-08-19 19:33:00,
2013-08-19 14:38:00,83.6,66.2,30.06,SW,215,5.8,6.9,56,0.00,CLR,,0.00,870.0,WeatherDisplay:10.37,2013-08-19 19:38:00,
2013-08-19 14:43:00,83.5,64.6,30.06,South,169,3.2,3.5,53,0.00,CLR,,0.00,863.0,WeatherDisplay:10.37,2013-08-19 19:43:00,
2013-08-19 14:48:00,83.9,65.5,30.05,South,178,2.0,5.8,54,0.00,CLR,,0.00,858.0,WeatherDisplay:10.37,2013-08-19 19:48:00,
2013-08-19 14:53:00,83.9,64.9,30.05,SW,219,0.0,0.0,53,0.00,CLR,,0.00,849.0,WeatherDisplay:10.37,2013-08-19 19:53:00,
2013-08-19 14:58:00,84.2,65.8,30.05,ESE,105,4.6,6.9,54,0.00,CLR,,0.00,851.0,WeatherDisplay:10.37,2013-08-19 19:58:00,
2013-08-19 15:03:00,83.9,65.5,30.05,SE,138,0.9,2.3,54,0.00,FEW,,0.00,837.0,WeatherDisplay:10.37,2013-08-19 20:03:00,
2013-08-19 15:08:00,84.3,64.8,30.04,SW,235,1.8,5.8,52,0.00,FEW,,0.00,826.0,WeatherDisplay:10.37,2013-08-19 20:08:00,
2013-08-19 15:13:00,84.6,65.6,30.05,SSE,163,1.1,2.3,53,0.00,FEW,,0.00,817.0,WeatherDisplay:10.37,2013-08-19 20:13:00,
2013-08-19 15:18:00,84.3,64.2,30.04,SSE,157,0.5,1.1,51,0.00,FEW,,0.00,805.0,WeatherDisplay:10.37,2013-08-19 20:18:00,
2013-08-19 15:23:00,84.3,64.2,30.04,SSW,194,3.4,3.5,51,0.00,FEW,,0.00,796.0,WeatherDisplay:10.37,2013-08-19 20:23:00,
2013-08-19 15:28:00,84.6,63.9,30.04,SE,144,0.7,2.3,50,0.00,FEW,,0.00,784.0,WeatherDisplay:10.37,2013-08-19 20:28:00,
2013-08-19 15:33:00,84.7,64.6,30.04,South,188,0.0,1.1,51,0.00,FEW,,0.00,768.0,WeatherDisplay:10.37,2013-08-19 20:33:00,
2013-08-19 15:38:00,85.0,66.5,30.03,ENE,75,2.4,4.0,54,0.00,FEW,,0.00,754.0,WeatherDisplay:10.37,2013-08-19 20:38:00,
2013-08-19 15:43:00,85.2,65.6,30.03,East,98,1.2,2.6,52,0.00,FEW,,0.00,742.0,WeatherDisplay:10.37,2013-08-19 20:43:00,
2013-08-19 15:48:00,85.3,65.7,30.03,South,191,3.8,6.6,52,0.00,FEW,,0.00,722.0,WeatherDisplay:10.37,2013-08-19 20:48:00,
2013-08-19 15:53:00,84.8,64.1,30.03,SE,142,1.5,2.3,50,0.00,FEW,,0.00,719.0,WeatherDisplay:10.37,2013-08-19 20:53:00,
2013-08-19 15:58:00,85.0,64.3,30.03,SE,127,1.0,2.3,50,0.00,FEW,,0.00,707.0,WeatherDisplay:10.37,2013-08-19 20:58:00,
2013-08-19 16:03:00,84.9,63.6,30.03,East,98,0.8,2.6,49,0.00,CLR,,0.00,691.0,WeatherDisplay:10.37,2013-08-19 21:03:00,
2013-08-19 16:08:00,85.0,64.8,30.03,South,171,0.4,1.1,51,0.00,CLR,,0.00,677.0,WeatherDisplay:10.37,2013-08-19 21:08:00,
2013-08-19 16:13:00,85.0,63.7,30.02,SSW,208,3.5,4.0,49,0.00,CLR,,0.00,670.0,WeatherDisplay:10.37,2013-08-19 21:13:00,
2013-08-19 16:18:00,85.2,63.9,30.02,ESE,123,3.6,5.8,49,0.00,CLR,,0.00,657.0,WeatherDisplay:10.37,2013-08-19 21:18:00,
2013-08-19 16:23:00,85.1,63.2,30.02,South,172,2.6,3.5,48,0.00,CLR,,0.00,647.0,WeatherDisplay:10.37,2013-08-19 21:23:00,
2013-08-19 16:28:00,85.1,64.4,30.02,South,169,0.1,1.1,50,0.00,CLR,,0.00,603.0,WeatherDisplay:10.37,2013-08-19 21:28:00,
2013-08-19 16:33:00,85.3,63.4,30.01,East,101,3.0,3.5,48,0.00,CLR,,0.00,501.0,WeatherDisplay:10.37,2013-08-19 21:33:00,
2013-08-19 16:38:00,84.7,66.2,30.01,ESE,117,2.1,3.5,54,0.00,CLR,,0.00,429.0,WeatherDisplay:10.37,2013-08-19 21:38:00,
2013-08-19 16:43:00,84.4,63.7,30.01,SW,216,0.3,1.3,50,0.00,CLR,,0.00,396.0,WeatherDisplay:10.37,2013-08-19 21:43:00,
2013-08-19 16:48:00,84.4,66.5,30.01,SW,234,0.0,0.0,55,0.00,CLR,,0.00,541.0,WeatherDisplay:10.37,2013-08-19 21:48:00,
2013-08-19 16:53:00,84.7,64.0,30.01,SW,231,3.9,4.0,50,0.00,CLR,,0.00,555.0,WeatherDisplay:10.37,2013-08-19 21:53:00,
2013-08-19 16:58:00,84.7,65.7,30.01,SW,221,1.9,3.5,53,0.00,CLR,,0.00,534.0,WeatherDisplay:10.37,2013-08-19 21:58:00,
2013-08-19 17:03:00,85.2,64.5,30.01,SW,221,1.3,2.6,50,0.00,CLR,,0.00,526.0,WeatherDisplay:10.37,2013-08-19 22:03:00,
2013-08-19 17:08:00,85.2,65.6,30.01,West,265,0.8,1.3,52,0.00,CLR,,0.00,508.0,WeatherDisplay:10.37,2013-08-19 22:08:00,
2013-08-19 17:13:00,85.0,66.0,30.01,West,265,0.0,0.0,53,0.00,CLR,,0.00,490.0,WeatherDisplay:10.37,2013-08-19 22:13:00,
2013-08-19 17:18:00,85.3,65.7,30.01,SW,223,1.4,2.3,52,0.00,CLR,,0.00,471.0,WeatherDisplay:10.37,2013-08-19 22:18:00,
2013-08-19 17:23:00,85.0,64.3,30.01,SW,214,1.2,2.3,50,0.00,CLR,,0.00,452.0,WeatherDisplay:10.37,2013-08-19 22:23:00,
2013-08-19 17:28:00,85.0,66.0,30.01,East,94,1.8,2.6,53,0.00,CLR,,0.00,431.0,WeatherDisplay:10.37,2013-08-19 22:28:00,
2013-08-19 17:33:00,84.8,65.2,30.00,NE,41,1.7,2.6,52,0.00,CLR,,0.00,411.0,WeatherDisplay:10.37,2013-08-19 22:33:00,
2013-08-19 17:38:00,84.8,63.5,30.00,North,360,0.1,1.1,49,0.00,CLR,,0.00,360.0,WeatherDisplay:10.37,2013-08-19 22:38:00,
2013-08-19 17:43:00,84.5,64.9,30.00,North,5,0.3,1.1,52,0.00,CLR,,0.00,91.0,WeatherDisplay:10.37,2013-08-19 22:43:00,
2013-08-19 17:48:00,84.4,64.3,30.00,North,5,0.6,1.1,51,0.00,CLR,,0.00,142.0,WeatherDisplay:10.37,2013-08-19 22:48:00,
2013-08-19 17:53:00,84.5,64.9,30.00,West,281,0.1,1.1,52,0.00,CLR,,0.00,339.0,WeatherDisplay:10.37,2013-08-19 22:53:00,
2013-08-19 17:58:00,85.0,65.4,30.00,West,281,0.6,1.3,52,0.00,CLR,,0.00,322.0,WeatherDisplay:10.37,2013-08-19 22:58:00,
2013-08-19 18:03:00,84.8,65.2,30.00,West,281,0.0,0.0,52,0.00,CLR,,0.00,304.0,WeatherDisplay:10.37,2013-08-19 23:03:00,
2013-08-19 18:08:00,84.7,65.1,30.00,West,281,0.1,1.1,52,0.00,CLR,,0.00,290.0,WeatherDisplay:10.37,2013-08-19 23:08:00,
2013-08-19 18:13:00,84.9,66.4,29.99,WNW,284,0.0,0.0,54,0.00,CLR,,0.00,262.0,WeatherDisplay:10.37,2013-08-19 23:13:00,
2013-08-19 18:18:00,85.0,67.0,29.99,WNW,284,0.0,0.0,55,0.00,CLR,,0.00,98.0,WeatherDisplay:10.37,2013-08-19 23:18:00,
2013-08-19 18:23:00,84.8,67.4,29.99,WNW,284,0.0,0.0,56,0.00,CLR,,0.00,137.0,WeatherDisplay:10.37,2013-08-19 23:23:00,
2013-08-19 18:28:00,84.3,67.4,29.99,WNW,284,0.0,0.0,57,0.00,CLR,,0.00,88.0,WeatherDisplay:10.37,2013-08-19 23:28:00,
2013-08-19 18:33:00,83.7,68.8,29.99,WNW,284,0.0,0.0,61,0.00,CLR,,0.00,70.0,WeatherDisplay:10.37,2013-08-19 23:33:00,
2013-08-19 18:38:00,82.9,69.5,29.99,WNW,284,0.0,0.0,64,0.00,CLR,,0.00,69.0,WeatherDisplay:10.37,2013-08-19 23:38:00,
2013-08-19 18:43:00,82.3,70.7,29.99,WNW,284,0.0,0.0,68,0.00,CLR,,0.00,135.0,WeatherDisplay:10.37,2013-08-19 23:43:00,
2013-08-19 18:48:00,81.9,69.0,29.99,WNW,284,0.0,0.0,65,0.00,CLR,,0.00,98.0,WeatherDisplay:10.37,2013-08-19 23:48:00,
2013-08-19 18:53:00,81.4,71.1,29.99,WNW,284,0.0,0.0,71,0.00,CLR,,0.00,77.0,WeatherDisplay:10.37,2013-08-19 23:53:00,
2013-08-19 18:58:00,80.9,70.2,29.99,WNW,284,0.0,0.0,70,0.00,CLR,,0.00,56.0,WeatherDisplay:10.37,2013-08-19 23:58:00,
2013-08-19 19:03:00,80.3,71.3,29.99,WNW,284,0.0,0.0,74,0.00,CLR,,0.00,47.0,WeatherDisplay:10.37,2013-08-20 00:03:00,
2013-08-19 19:08:00,79.6,69.4,29.99,WNW,284,0.0,0.0,71,0.00,CLR,,0.00,40.0,WeatherDisplay:10.37,2013-08-20 00:08:00,
2013-08-19 19:13:00,79.4,69.6,29.99,WNW,284,0.0,0.0,72,0.00,CLR,,0.00,40.0,WeatherDisplay:10.37,2013-08-20 00:13:00,
2013-08-19 19:18:00,79.0,71.2,29.99,WNW,284,0.0,0.0,77,0.00,CLR,,0.00,56.0,WeatherDisplay:10.37,2013-08-20 00:18:00,
2013-08-19 19:23:00,78.5,71.8,29.99,WNW,284,0.0,0.0,80,0.00,CLR,,0.00,56.0,WeatherDisplay:10.37,2013-08-20 00:23:00,
2013-08-19 19:28:00,78.6,71.5,29.99,WNW,284,0.0,0.0,79,0.00,CLR,,0.00,47.0,WeatherDisplay:10.37,2013-08-20 00:28:00,
2013-08-19 19:33:00,79.0,70.4,29.99,WNW,284,0.0,0.0,75,0.00,CLR,,0.00,42.0,WeatherDisplay:10.37,2013-08-20 00:33:00,
2013-08-19 19:38:00,79.2,69.8,29.99,WNW,284,0.0,0.0,73,0.00,CLR,,0.00,32.0,WeatherDisplay:10.37,2013-08-20 00:38:00,
2013-08-19 19:43:00,78.6,69.2,29.99,WNW,284,0.0,0.0,73,0.00,CLR,,0.00,21.0,WeatherDisplay:10.37,2013-08-20 00:43:00,
2013-08-19 19:48:00,78.3,70.1,29.99,WNW,284,0.0,0.0,76,0.00,CLR,,0.00,16.0,WeatherDisplay:10.37,2013-08-20 00:48:00,
2013-08-19 19:53:00,77.7,69.9,29.99,WNW,284,0.0,0.0,77,0.00,CLR,,0.00,9.0,WeatherDisplay:10.37,2013-08-20 00:53:00,
2013-08-19 19:58:00,77.3,69.5,29.99,WNW,284,0.0,0.0,77,0.00,CLR,,0.00,7.0,WeatherDisplay:10.37,2013-08-20 00:58:00,
2013-08-19 20:03:00,77.0,68.9,29.99,WNW,284,0.0,0.0,76,0.00,CLR,,0.00,0.0,WeatherDisplay:10.37,2013-08-20 01:03:00,
2013-08-19 20:08:00,76.6,68.8,29.99,WNW,284,0.0,0.0,77,0.00,CLR,,0.00,0.0,WeatherDisplay:10.37,2013-08-20 01:08:00,
2013-08-19 20:13:00,76.2,68.8,29.99,WNW,284,0.0,0.0,78,0.00,CLR,,0.00,0.0,WeatherDisplay:10.37,2013-08-20 01:13:00,
2013-08-19 20:18:00,75.7,69.1,29.99,WNW,284,0.0,0.0,80,0.00,CLR,,0.00,0.0,WeatherDisplay:10.37,2013-08-20 01:18:00,
2013-08-19 20:23:00,75.4,68.8,29.99,WNW,284,0.0,0.0,80,0.00,CLR,,0.00,0.0,WeatherDisplay:10.37,2013-08-20 01:23:00,
2013-08-19 20:28:00,75.1,69.9,30.00,WNW,284,0.0,0.0,84,0.00,CLR,,0.00,0.0,WeatherDisplay:10.37,2013-08-20 01:28:00,
2013-08-19 20:33:00,74.8,68.2,30.00,WNW,284,0.0,0.0,80,0.00,CLR,,0.00,0.0,WeatherDisplay:10.37,2013-08-20 01:33:00,
2013-08-19 20:38:00,74.9,68.3,30.00,WNW,284,0.0,0.0,80,0.00,CLR,,0.00,0.0,WeatherDisplay:10.37,2013-08-20 01:38:00,
2013-08-19 20:43:00,75.0,69.1,30.00,WNW,284,0.0,0.0,82,0.00,CLR,,0.00,0.0,WeatherDisplay:10.37,2013-08-20 01:43:00,
2013-08-19 20:48:00,75.1,69.9,30.01,WNW,284,0.0,0.0,84,0.00,CLR,,0.00,0.0,WeatherDisplay:10.37,2013-08-20 01:48:00,
2013-08-19 20:53:00,75.5,69.3,30.01,WNW,284,0.0,0.0,81,0.00,CLR,,0.00,0.0,WeatherDisplay:10.37,2013-08-20 01:53:00,
2013-08-19 20:58:00,75.6,69.7,30.01,WNW,284,0.0,0.0,82,0.00,CLR,,0.00,0.0,WeatherDisplay:10.37,2013-08-20 01:58:00,
2013-08-19 21:03:00,75.8,69.9,30.01,WNW,284,0.0,0.0,82,0.00,CLR,,0.00,0.0,WeatherDisplay:10.37,2013-08-20 02:03:00,
2013-08-19 21:08:00,75.7,69.5,30.01,WNW,284,0.0,0.0,81,0.00,CLR,,0.00,0.0,WeatherDisplay:10.37,2013-08-20 02:08:00,
2013-08-19 21:13:00,75.7,69.5,30.01,WNW,284,0.0,0.0,81,0.00,CLR,,0.00,0.0,WeatherDisplay:10.37,2013-08-20 02:13:00,
2013-08-19 21:18:00,75.4,69.5,30.02,WNW,284,0.0,0.0,82,0.00,CLR,,0.00,0.0,WeatherDisplay:10.37,2013-08-20 02:18:00,
2013-08-19 21:23:00,75.0,69.5,30.02,WNW,284,0.0,0.0,83,0.00,CLR,,0.00,0.0,WeatherDisplay:10.37,2013-08-20 02:23:00,
2013-08-19 21:28:00,74.6,69.4,30.02,WNW,284,0.0,0.0,84,0.00,CLR,,0.00,0.0,WeatherDisplay:10.37,2013-08-20 02:28:00,
2013-08-19 21:33:00,74.1,69.0,30.02,WNW,284,0.0,0.0,84,0.00,CLR,,0.00,0.0,WeatherDisplay:10.37,2013-08-20 02:33:00,
2013-08-19 21:38:00,74.0,68.9,30.02,WNW,284,0.0,0.0,84,0.00,CLR,,0.00,0.0,WeatherDisplay:10.37,2013-08-20 02:38:00,
2013-08-19 21:43:00,73.8,69.0,30.03,WNW,284,0.0,0.0,85,0.00,CLR,,0.00,0.0,WeatherDisplay:10.37,2013-08-20 02:43:00,
2013-08-19 21:48:00,73.6,68.8,30.03,WNW,284,0.0,0.0,85,0.00,CLR,,0.00,0.0,WeatherDisplay:10.37,2013-08-20 02:48:00,
2013-08-19 21:53:00,73.2,68.8,30.03,WNW,284,0.0,0.0,86,0.00,CLR,,0.00,0.0,WeatherDisplay:10.37,2013-08-20 02:53:00,
2013-08-19 21:58:00,73.4,68.6,30.04,NW,319,0.0,0.0,85,0.00,CLR,,0.00,0.0,WeatherDisplay:10.37,2013-08-20 02:58:00,
2013-08-19 22:03:00,73.3,68.2,30.04,NW,319,0.0,0.0,84,0.00,CLR,,0.00,0.0,WeatherDisplay:10.37,2013-08-20 03:03:00,
2013-08-19 22:08:00,73.2,68.1,30.03,NW,319,0.0,0.0,84,0.00,CLR,,0.00,0.0,WeatherDisplay:10.37,2013-08-20 03:08:00,
2013-08-19 22:13:00,73.1,68.0,30.04,NW,319,0.0,0.0,84,0.00,CLR,,0.00,0.0,WeatherDisplay:10.37,2013-08-20 03:13:00,
2013-08-19 22:18:00,73.0,67.9,30.04,NW,319,0.0,0.0,84,0.00,CLR,,0.00,0.0,WeatherDisplay:10.37,2013-08-20 03:18:00,
2013-08-19 22:23:00,72.8,67.7,30.04,NW,319,0.0,0.0,84,0.00,CLR,,0.00,0.0,WeatherDisplay:10.37,2013-08-20 03:23:00,
2013-08-19 22:28:00,72.9,67.4,30.04,NW,319,0.0,0.0,83,0.00,CLR,,0.00,0.0,WeatherDisplay:10.37,2013-08-20 03:28:00,
2013-08-19 22:33:00,72.8,67.7,30.04,NW,319,0.0,0.0,84,0.00,CLR,,0.00,0.0,WeatherDisplay:10.37,2013-08-20 03:33:00,
2013-08-19 22:38:00,72.8,67.7,30.04,NW,319,0.0,0.0,84,0.00,CLR,,0.00,0.0,WeatherDisplay:10.37,2013-08-20 03:38:00,
2013-08-19 22:43:00,72.7,67.6,30.04,NW,319,0.0,0.0,84,0.00,CLR,,0.00,0.0,WeatherDisplay:10.37,2013-08-20 03:43:00,
2013-08-19 22:48:00,72.7,67.6,30.03,NW,319,0.0,0.0,84,0.00,CLR,,0.00,0.0,WeatherDisplay:10.37,2013-08-20 03:48:00,
2013-08-19 22:53:00,72.5,67.7,30.04,NW,319,0.0,0.0,85,0.00,CLR,,0.00,0.0,WeatherDisplay:10.37,2013-08-20 03:53:00,
2013-08-19 22:58:00,72.3,67.9,30.04,NW,319,0.0,0.0,86,0.00,CLR,,0.00,0.0,WeatherDisplay:10.37,2013-08-20 03:58:00,
2013-08-19 23:01:00,72.2,67.4,30.04,NW,319,0.0,0.0,85,0.00,FEW,,0.00,0.0,WeatherDisplay:10.37,2013-08-20 04:01:00,
2013-08-19 23:02:00,72.2,67.4,30.04,NW,319,0.0,0.0,85,0.00,FEW,,0.00,0.0,WeatherDisplay:10.37,2013-08-20 04:02:00,
2013-08-19 23:07:00,72.1,67.7,30.04,NW,319,0.0,0.0,86,0.00,FEW,,0.00,0.0,WeatherDisplay:10.37,2013-08-20 04:07:00,
2013-08-19 23:12:00,71.8,67.4,30.04,NW,319,0.0,0.0,86,0.00,FEW,,0.00,0.0,WeatherDisplay:10.37,2013-08-20 04:12:00,
2013-08-19 23:17:00,71.5,67.1,30.04,NW,319,0.0,0.0,86,0.00,FEW,,0.00,0.0,WeatherDisplay:10.37,2013-08-20 04:17:00,
2013-08-19 23:22:00,71.2,66.8,30.04,NW,319,0.0,0.0,86,0.00,FEW,,0.00,0.0,WeatherDisplay:10.37,2013-08-20 04:22:00,
2013-08-19 23:27:00,71.0,66.9,30.04,NW,319,0.0,0.0,87,0.00,FEW,,0.00,0.0,WeatherDisplay:10.37,2013-08-20 04:27:00,
2013-08-19 23:32:00,70.7,66.6,30.04,NW,319,0.0,0.0,87,0.00,FEW,,0.00,0.0,WeatherDisplay:10.37,2013-08-20 04:32:00,
2013-08-19 23:37:00,70.6,66.9,30.04,NW,319,0.0,0.0,88,0.00,FEW,,0.00,0.0,WeatherDisplay:10.37,2013-08-20 04:37:00,
2013-08-19 23:42:00,70.4,66.3,30.04,NW,319,0.0,0.0,87,0.00,FEW,,0.00,0.0,WeatherDisplay:10.37,2013-08-20 04:42:00,
2013-08-19 23:47:00,70.3,66.2,30.04,NW,319,0.0,0.0,87,0.00,FEW,,0.00,0.0,WeatherDisplay:10.37,2013-08-20 04:47:00,
2013-08-19 23:52:00,70.1,66.4,30.04,NW,319,0.0,0.0,88,0.00,FEW,,0.00,0.0,WeatherDisplay:10.37,2013-08-20 04:52:00,
2013-08-19 23:57:00,69.8,66.1,30.04,NW,319,0.0,0.0,88,0.00,FEW,,0.00,0.0,WeatherDisplay:10.37,2013-08-20 04:57:00,